Flag for Pakistan Weather past 2 weeks in Karachi, Sindh, Pakistan

Now
95 °F

Clear.


Feels Like: 101 °F
Forecast: 80 / 93 °F
Wind: 12 mph from Southwest

Location: Karachi Airport

Current Time: May 3, 2015 at 3:11:56 PM

Latest Report: May 3, 2015 at 2:25 PM


Visibility: 4 mi

Pressure: 29.71 "Hg

Humidity: 44%

Dew point: 70 °F

Location of KarachiLocation

Historic Weather in Karachi — Graph

°F

Karachi temperature yesterday

Maximum temperature yesterday: 102 °F (at 1:25 PM)
Minimum temperature yesterday: 81 °F (at 3:25 AM)
Average temperature yesterday: 90 °F

Past Weeks' High & Low Weather Summary

 TemperatureHumidityPressure
High109 °F (May 1, 12:55 PM)84% (Apr 25, 6:25 AM)29.86 "Hg (Apr 25, 6:25 AM)
Low77 °F (Apr 29, 6:25 AM)7% (May 1, 1:25 PM)29.62 "Hg (Apr 18, 3:55 PM)
Average88 °F51%29.74 "Hg
* Reported Apr 18 1:25 PM — May 3 1:55 PM, Karachi, Weather by CustomWeather, © 2015

Note: Actual official high and low records may vary slightly from our data, if they occured in-between our weather recording intervals... More about our weather records

Advertising

Karachi weather history for previous 24 hours

 ConditionsComfort  
Time TempWeatherWind HumidityBarometerVisibility
1:55 PM
Sun, May 3
95 °FClear.14 mph44%29.74 "Hg4 mi
1:25 PM95 °FClear.12 mph47%29.74 "Hg4 mi
12:55 PM95 °FClear.12 mph39%29.77 "Hg4 mi
12:25 PM93 °FClear.9 mph47%29.77 "Hg4 mi
11:55 AM93 °FClear.9 mph49%29.77 "Hg4 mi
11:25 AM91 °FClear.9 mph56%29.77 "Hg4 mi
10:55 AM91 °FClear.7 mph52%29.80 "Hg4 mi
10:25 AM91 °FClear.7 mph52%29.80 "Hg4 mi
9:55 AM90 °FClear.9 mph49%29.80 "Hg4 mi
9:25 AM88 °FClear.15 mph55%29.80 "Hg4 mi
8:55 AM88 °FClear.14 mph55%29.80 "Hg4 mi
8:25 AM86 °FClear.12 mph59%29.77 "Hg4 mi
7:55 AM84 °FClear.5 mph62%29.77 "Hg4 mi
7:25 AM82 °FClear.5 mph70%29.77 "Hg4 mi
6:55 AM81 °FClear.5 mph70%29.77 "Hg4 mi
6:25 AM79 °FClear.5 mph74%29.74 "Hg4 mi
4:25 AM79 °FClear.5 mph70%29.71 "Hg4 mi
3:55 AM79 °FClear.3 mph65%29.74 "Hg4 mi
3:25 AM79 °FClear.3 mph65%29.74 "Hg4 mi
2:55 AM81 °FClear.7 mph62%29.74 "Hg4 mi
1:55 AM82 °FClear.7 mph40%29.74 "Hg4 mi
1:25 AM82 °FClear.6 mph35%29.74 "Hg4 mi
12:55 AM82 °FClear.7 mph42%29.77 "Hg4 mi
12:25 AM82 °FClear.12 mph42%29.77 "Hg4 mi
11:55 PM
Sat, May 2
82 °FClear.5 mph42%29.77 "Hg4 mi
11:25 PM86 °FClear.3 mph33%29.77 "Hg4 mi
10:55 PM88 °FClear.13 mph29%29.77 "Hg4 mi
10:25 PM88 °FClear.8 mph31%29.77 "Hg4 mi
9:55 PM88 °FClear.8 mph31%29.77 "Hg4 mi
9:25 PM88 °FClear.12 mph29%29.74 "Hg4 mi
9:00 PM88 °FClear.8 mph43%29.74 "Hg4 mi
8:30 PM86 °FClear.7 mph46%29.74 "Hg4 mi
8:00 PM88 °FClear.7 mph43%29.74 "Hg4 mi
7:25 PM88 °FClear.9 mph46%29.71 "Hg4 mi
6:55 PM90 °FClear.7 mph43%29.71 "Hg4 mi
6:30 PM91 °FClear.10 mph38%29.71 "Hg4 mi
5:55 PM95 °FClear.7 mph30%29.71 "Hg4 mi
5:25 PM97 °FClear.10 mph32%29.68 "Hg4 mi
4:55 PM97 °FClear.12 mph32%29.68 "Hg4 mi
4:25 PM99 °FClear.12 mph31%29.68 "Hg4 mi
3:55 PM100 °FClear.7 mph29%29.71 "Hg4 mi
3:25 PM102 °FClear.10 mph27%29.71 "Hg4 mi
Weather by CustomWeather, © 2015

See weather overviewHow to use our weather pages